Tracking 19219 objects as of 22-Jul-2018
HD Live streaming from Space Station
objects crossing your sky now

FENGYUN 1C DEB

Track FENGYUN 1C DEB now!
10-day predictions


NORAD ID: 30611
Int'l Code: 1999-025AMS
Perigee: 425.3 km
Apogee: 670.3 km
Inclination: 98.6 °
Period: 95.5 minutes
Semi major axis: 6918 km
RCS: 0.0108 m2 (small)
Launch date: May 10, 1999
Source: People's Republic of China (PRC)
Launch site: Taiyaun Space Center, China (TSC)

Note: This is SATELLITE DEBRIS
aabbcc
Your satellite tracking list
Your tracking list is empty




NASA's NSSDC Master Catalog

Two Line Element Set (TLE):
1 30611U 99025AMS 18202.89733477  .00002208  00000-0  10280-3 0  9993
2 30611  98.6373 184.5868 0177025 257.6716 100.4642 15.08532507619149
Source of the keplerian elements: AFSPC